Home   Weather   Heidelberg   Past weeks

Flag for Germany Past Weather in Heidelberg, Baden-Württemberg, Germany — Yesterday and Last 2 Weeks

Now
19 °F

Clear.


Feels Like: 9 °F
Forecast: 13 / 25 °F
Wind: 8 mph from East

Location: Frankfurt-M-Flughafen Airport

Current Time: Jan 22, 2017 at 2:53:10 am

Latest Report: Jan 22, 2017 at 2:20 am


Visibility: 10 mi

Pressure: 30.36 "Hg

Humidity: 79%

Dew Point: 14 °F

Location of HeidelbergLocation

Past Weather in Heidelberg — Graph

°F

Heidelberg Temperature Yesterday

Maximum temperature yesterday: 37 °F (at 1:20 pm)
Minimum temperature yesterday: 21 °F (at 7:50 am)
Average temperature yesterday: 29 °F

High & Low Weather Summary for the Past Weeks

 TemperatureHumidityPressure
High43 °F (Jan 12, 12:50 pm)100% (Jan 7, 10:20 pm)30.66 "Hg (Jan 7, 10:20 pm)
Low12 °F (Jan 7, 1:50 am)28% (Jan 20, 3:20 pm)29.15 "Hg (Jan 13, 12:50 am)
Average31 °F78%30.21 "Hg
* Reported Jan 7 1:20 am — Jan 22 1:50 am, Heidelberg, Weather by CustomWeather, © 2017

Note: Actual official high and low records may vary slightly from our data, if they occured in-between our weather recording intervals... More about our weather records

Advertising

Heidelberg Weather History for the Previous 24 Hours

Scroll right to see more
 ConditionsComfort  
Time TempWeatherWind HumidityBarometerVisibility
1:50 am
Sun, Jan 22
19 °FClear.8 mph79%30.36 "Hg10 mi
1:20 am21 °FClear.7 mph74%30.36 "Hg10 mi
12:50 am21 °FClear.7 mph80%30.36 "Hg10 mi
12:20 am21 °FClear.8 mph74%30.36 "Hg10 mi
11:50 pm
Sat, Jan 21
23 °FClear.7 mph68%30.36 "Hg10 mi
11:20 pm25 °FClear.5 mph69%30.36 "Hg10 mi
10:50 pm27 °FClear.9 mph64%30.36 "Hg10 mi
10:20 pm25 °FClear.9 mph69%30.36 "Hg10 mi
9:50 pm27 °FClear.8 mph64%30.39 "Hg10 mi
9:20 pm27 °FClear.6 mph64%30.39 "Hg10 mi
8:50 pm30 °FPassing clouds.5 mph59%30.39 "HgN/A
8:20 pm28 °FClear.7 mph64%30.39 "Hg10 mi
7:50 pm30 °FClear.7 mph59%30.39 "Hg10 mi
7:20 pm28 °FPassing clouds.5 mph64%30.39 "HgN/A
6:50 pm34 °FPassing clouds.3 mph51%30.39 "HgN/A
6:20 pm32 °FClear.3 mph55%30.39 "Hg10 mi
5:50 pm34 °FClear.6 mph51%30.36 "Hg10 mi
5:20 pm34 °FClear.6 mph51%30.36 "Hg10 mi
4:50 pm34 °FSunny.9 mph51%30.36 "Hg10 mi
4:20 pm37 °FSunny.10 mph45%30.36 "Hg10 mi
3:50 pm37 °FSunny.8 mph41%30.36 "Hg10 mi
3:20 pm37 °FPassing clouds.8 mph41%30.36 "HgN/A
2:50 pm37 °FSunny.12 mph45%30.36 "Hg10 mi
2:20 pm37 °FSunny.12 mph41%30.39 "Hg10 mi
1:50 pm37 °FPassing clouds.9 mph41%30.39 "HgN/A
1:20 pm37 °FSunny.8 mph41%30.39 "Hg10 mi
12:50 pm36 °FPassing clouds.8 mph44%30.42 "HgN/A
12:20 pm36 °FPassing clouds.9 mph48%30.42 "HgN/A
11:50 am34 °FPassing clouds.7 mph51%30.42 "HgN/A
11:20 am34 °FSunny.7 mph56%30.45 "Hg10 mi
10:50 am32 °FSunny.7 mph60%30.45 "Hg10 mi
10:20 am30 °FSunny.7 mph64%30.45 "Hg10 mi
9:50 am28 °FSunny.6 mph74%30.45 "Hg10 mi
9:20 am25 °FPassing clouds.3 mph80%30.45 "HgN/A
8:50 am23 °FSunny.3 mph80%30.45 "Hg10 mi
8:20 am21 °FSunny.2 mph86%30.45 "Hg10 mi
7:50 am21 °FCold.3 mph86%30.45 "HgN/A
7:20 am23 °FClear.5 mph80%30.42 "Hg10 mi
6:50 am23 °FClear.6 mph80%30.42 "Hg10 mi
6:20 am23 °FClear.5 mph86%30.42 "Hg10 mi
5:50 am23 °FClear.3 mph86%30.45 "Hg10 mi
5:20 am23 °FPassing clouds.3 mph86%30.45 "HgN/A
4:50 am23 °FClear.7 mph86%30.45 "Hg10 mi
4:20 am23 °FClear.8 mph80%30.45 "Hg10 mi
3:50 am23 °FClear.7 mph86%30.45 "Hg10 mi
3:20 am25 °FClear.5 mph80%30.45 "Hg10 mi
2:50 am25 °FClear.7 mph80%30.45 "Hg10 mi
2:20 am23 °FClear.7 mph86%30.45 "Hg10 mi
Weather by CustomWeather, © 2017

See weather overviewHow to use our weather pages